,,,PA_Meas_PMT16A,,PR_Meas_QMR101_102,,RH_Meas_QMH101,,SR_Meas_QMS101,,TA_Meas_QMH101,,GenWind,,GenWind,
date,time,status,PA,status,PR,status,RH,status,SR,status,TA,status,DirAvg,status,SpdAvg,
2008-11-29, 00:00:04,VALID,1010.88,VALID,0,VALID,91.6234,VALID,0,VALID,25.2142,VALID,88,VALID,0.787109,
2008-11-29, 00:01:04,VALID,1010.86,VALID,0,VALID,91.5929,VALID,0,VALID,25.1928,VALID,87,VALID,0.776172,
2008-11-29, 00:02:04,VALID,1010.83,VALID,0,VALID,91.6158,VALID,0.105969,VALID,25.2142,VALID,88,VALID,0.532031,
2008-11-29, 00:03:04,VALID,1010.84,VALID,0,VALID,91.5167,VALID,0,VALID,25.1947,VALID,69,VALID,0.71875,
2008-11-29, 00:04:04,VALID,1010.83,VALID,0,VALID,91.5014,VALID,0,VALID,25.1733,VALID,80,VALID,0.436719,
2008-11-29, 00:05:04,VALID,1010.82,VALID,0,VALID,91.4785,VALID,0,VALID,25.1947,VALID,76,VALID,0.400391,
2008-11-29, 00:06:04,VALID,1010.81,VALID,0,VALID,91.5319,VALID,0,VALID,25.1752,VALID,76,VALID,0.730859,
2008-11-29, 00:07:04,VALID,1010.79,VALID,0,VALID,91.6005,VALID,0,VALID,25.1538,VALID,94,VALID,0.673828,
2008-11-29, 00:08:04,VALID,1010.77,VALID,0,VALID,91.6844,VALID,0,VALID,25.1752,VALID,89,VALID,0.609766,
2008-11-29, 00:09:04,VALID,1010.76,VALID,0,VALID,91.6616,VALID,0,VALID,25.1752,VALID,88,VALID,0.858984,
2008-11-29, 00:10:04,VALID,1010.75,VALID,0,VALID,91.7302,VALID,0,VALID,25.1557,VALID,95,VALID,0.920703,
2008-11-29, 00:11:04,VALID,1010.74,VALID,0,VALID,91.7531,VALID,0,VALID,25.1752,VALID,97,VALID,0.911719,
2008-11-29, 00:12:04,VALID,1010.73,VALID,0,VALID,91.837,VALID,0,VALID,25.1947,VALID,111,VALID,0.799609,
2008-11-29, 00:13:04,VALID,1010.72,VALID,0,VALID,91.9513,VALID,0,VALID,25.1947,VALID,110,VALID,0.713281,
2008-11-29, 00:14:04,VALID,1010.68,VALID,0,VALID,91.8751,VALID,0,VALID,25.1733,VALID,118,VALID,0.872266,
2008-11-29, 00:15:04,VALID,1010.65,VALID,0,VALID,91.8675,VALID,0,VALID,25.1947,VALID,118,VALID,1.01914,
2008-11-29, 00:16:04,VALID,1010.67,VALID,0,VALID,91.8751,VALID,0,VALID,25.1557,VALID,129,VALID,1.29844,
2008-11-29, 00:17:04,VALID,1010.62,VALID,0,VALID,91.9132,VALID,0,VALID,25.1557,VALID,91,VALID,1.18047,
2008-11-29, 00:18:04,VALID,1010.6,VALID,0,VALID,91.8827,VALID,0,VALID,25.1362,VALID,103,VALID,1,
2008-11-29, 00:19:04,VALID,1010.57,VALID,0,VALID,91.959,VALID,0,VALID,25.1362,VALID,104,VALID,0.574219,
2008-11-29, 00:20:04,VALID,1010.51,VALID,0,VALID,92.0581,VALID,0,VALID,25.1167,VALID,114,VALID,0.655469,
2008-11-29, 00:21:04,VALID,1010.44,VALID,0,VALID,92.1039,VALID,0,VALID,25.0973,VALID,111,VALID,0.942578,
2008-11-29, 00:22:04,VALID,1010.43,VALID,0,VALID,92.1191,VALID,0,VALID,25.0973,VALID,110,VALID,0.726172,
2008-11-29, 00:23:04,VALID,1010.41,VALID,0,VALID,92.1649,VALID,0,VALID,25.0973,VALID,110,VALID,0.769141,
2008-11-29, 00:24:04,VALID,1010.42,VALID,0,VALID,92.1344,VALID,0.105969,VALID,25.1148,VALID,104,VALID,0.973437,
2008-11-29, 00:25:04,VALID,1010.39,VALID,0,VALID,92.1649,VALID,0.105969,VALID,25.0954,VALID,105,VALID,0.708984,
2008-11-29, 00:26:04,VALID,1010.41,VALID,0,VALID,92.2335,VALID,0.105969,VALID,25.0954,VALID,107,VALID,0.456641,
2008-11-29, 00:27:04,VALID,1010.41,VALID,0,VALID,92.1877,VALID,0.105969,VALID,25.074,VALID,116,VALID,1.21406,
2008-11-29, 00:28:04,VALID,1010.4,VALID,0,VALID,92.1649,VALID,0.105969,VALID,25.0954,VALID,103,VALID,0.384375,
2008-11-29, 00:29:04,VALID,1010.38,VALID,0,VALID,92.2106,VALID,0,VALID,25.0954,VALID,131,VALID,0.526172,
2008-11-29, 00:30:04,VALID,1010.34,VALID,0,VALID,92.2869,VALID,0,VALID,25.0759,VALID,140,VALID,0.453516,
2008-11-29, 00:31:04,VALID,1010.33,VALID,0,VALID,92.2487,VALID,0.105969,VALID,25.0545,VALID,101,VALID,0.908203,
2008-11-29, 00:32:04,VALID,1010.3,VALID,0,VALID,92.3174,VALID,0.105969,VALID,25.0759,VALID,115,VALID,0.835938,
2008-11-29, 00:33:04,VALID,1010.3,VALID,0,VALID,92.3174,VALID,0,VALID,25.0564,VALID,111,VALID,1.16445,
2008-11-29, 00:34:04,VALID,1010.29,VALID,0,VALID,92.3631,VALID,0.105969,VALID,25.0759,VALID,118,VALID,1.025,
2008-11-29, 00:35:04,VALID,1010.29,VALID,0,VALID,92.4699,VALID,0.105969,VALID,25.0564,VALID,134,VALID,0.683594,
2008-11-29, 00:36:04,VALID,1010.26,VALID,0,VALID,92.5156,VALID,0.105969,VALID,25.0155,VALID,111,VALID,0.915625,
2008-11-29, 00:37:04,VALID,1010.28,VALID,0,VALID,92.5614,VALID,0.105969,VALID,25.0155,VALID,113,VALID,1.02813,
2008-11-29, 00:38:04,VALID,1010.29,VALID,0,VALID,92.5614,VALID,0,VALID,25.0369,VALID,110,VALID,1.1918,
2008-11-29, 00:39:04,VALID,1010.26,VALID,0,VALID,92.5766,VALID,0,VALID,25.0388,VALID,116,VALID,0.646484,
2008-11-29, 00:40:04,VALID,1010.26,VALID,0,VALID,92.6224,VALID,0,VALID,25.0388,VALID,111,VALID,1.08125,
2008-11-29, 00:41:04,VALID,1010.24,VALID,0,VALID,92.6682,VALID,0,VALID,25.0388,VALID,124,VALID,0.573438,
2008-11-29, 00:42:04,VALID,1010.24,VALID,0,VALID,92.6987,VALID,0,VALID,25.0193,VALID,126,VALID,0.322656,
2008-11-29, 00:43:04,VALID,1010.2,VALID,0,VALID,92.691,VALID,0,VALID,24.9998,VALID,127,VALID,0.596875,
2008-11-29, 00:44:04,VALID,1010.2,VALID,0,VALID,92.7444,VALID,0,VALID,24.9998,VALID,142,VALID,0.718359,
2008-11-29, 00:45:04,VALID,1010.17,VALID,0,VALID,92.8054,VALID,0,VALID,24.9803,VALID,120,VALID,0.408203,
2008-11-29, 00:46:04,VALID,1010.14,VALID,0,VALID,92.8893,VALID,0,VALID,24.9803,VALID,106,VALID,0.416406,
2008-11-29, 00:47:04,VALID,1010.13,VALID,0,VALID,92.9427,VALID,0,VALID,24.9608,VALID,104,VALID,0.846484,
2008-11-29, 00:48:04,VALID,1010.11,VALID,0,VALID,92.9656,VALID,0,VALID,24.9608,VALID,108,VALID,0.926562,
2008-11-29, 00:49:04,VALID,1010.12,VALID,0,VALID,93.0037,VALID,0,VALID,24.9608,VALID,107,VALID,0.357422,
2008-11-29, 00:50:04,VALID,1010.14,VALID,0,VALID,93.0113,VALID,0,VALID,24.9608,VALID,96,VALID,0.701172,
2008-11-29, 00:51:04,VALID,1010.07,VALID,0,VALID,93.0266,VALID,0,VALID,24.9608,VALID,123,VALID,0.855078,
2008-11-29, 00:52:04,VALID,1010.06,VALID,0,VALID,93.0266,VALID,0,VALID,24.9803,VALID,76,VALID,0.564453,
2008-11-29, 00:53:04,VALID,1010.06,VALID,0,VALID,93.0342,VALID,0,VALID,24.9803,VALID,98,VALID,0.704297,
2008-11-29, 00:54:04,VALID,1010.04,VALID,0,VALID,93.0113,VALID,0,VALID,24.9784,VALID,81,VALID,0.402344,
2008-11-29, 00:55:04,VALID,1010.04,VALID,0,VALID,93.0189,VALID,0.105969,VALID,24.9589,VALID,72,VALID,0.651563,
2008-11-29, 00:56:04,VALID,1009.99,VALID,0,VALID,93.0647,VALID,0.105969,VALID,24.9394,VALID,73,VALID,0.521875,
2008-11-29, 00:57:04,VALID,1010.02,VALID,0,VALID,93.0876,VALID,0,VALID,24.9394,VALID,72,VALID,0.508984,
2008-11-29, 00:58:04,VALID,1009.98,VALID,0,VALID,93.1257,VALID,0,VALID,24.9199,VALID,70,VALID,0.919141,
2008-11-29, 00:59:04,VALID,1009.99,VALID,0,VALID,93.1333,VALID,0.105969,VALID,24.8985,VALID,85,VALID,0.947656,
2008-11-29, 01:00:04,VALID,1009.97,VALID,0,VALID,93.1562,VALID,0.105969,VALID,24.9199,VALID,69,VALID,0.669922,
2008-11-29, 01:01:04,VALID,1009.98,VALID,0,VALID,93.1486,VALID,0.105969,VALID,24.9199,VALID,64,VALID,1.04922,
2008-11-29, 01:02:04,VALID,1009.98,VALID,0,VALID,93.1715,VALID,0.105969,VALID,24.9004,VALID,43,VALID,0.448047,
2008-11-29, 01:03:04,VALID,1009.95,VALID,0,VALID,93.1638,VALID,0.105969,VALID,24.9004,VALID,59,VALID,0.495703,
2008-11-29, 01:04:04,VALID,1009.95,VALID,0,VALID,93.1715,VALID,0.105969,VALID,24.9004,VALID,70,VALID,0.236719,
2008-11-29, 01:05:04,VALID,1009.94,VALID,0,VALID,93.202,VALID,0.105969,VALID,24.9004,VALID,70,VALID,0.0457031,
2008-11-29, 01:06:04,VALID,1009.92,VALID,0,VALID,93.2096,VALID,0.105969,VALID,24.8596,VALID,53,VALID,0.339063,
2008-11-29, 01:07:04,VALID,1009.9,VALID,0,VALID,93.2477,VALID,0.105969,VALID,24.8809,VALID,53,VALID,0.00195313,
2008-11-29, 01:08:04,VALID,1009.92,VALID,0,VALID,93.2858,VALID,0.105969,VALID,24.8401,VALID,53,VALID,0.161328,
2008-11-29, 01:09:04,VALID,1009.92,VALID,0,VALID,93.3545,VALID,0,VALID,24.8438,VALID,53,VALID,0,
2008-11-29, 01:10:04,VALID,1009.9,VALID,0,VALID,93.3773,VALID,0,VALID,24.8225,VALID,53,VALID,0.114453,
2008-11-29, 01:11:04,VALID,1009.93,VALID,0,VALID,93.4231,VALID,0,VALID,24.8244,VALID,53,VALID,0.164063,
2008-11-29, 01:12:04,VALID,1009.95,VALID,0,VALID,93.446,VALID,0,VALID,24.8049,VALID,53,VALID,0.0804688,
2008-11-29, 01:13:04,VALID,1009.95,VALID,0,VALID,93.4917,VALID,0,VALID,24.8049,VALID,53,VALID,0.1375,
2008-11-29, 01:14:04,VALID,1009.94,VALID,0,VALID,93.5222,VALID,0,VALID,24.7835,VALID,53,VALID,0.220313,
2008-11-29, 01:15:04,VALID,1009.95,VALID,0,VALID,93.5451,VALID,0,VALID,24.7835,VALID,34,VALID,0.257422,
2008-11-29, 01:16:04,VALID,1009.93,VALID,0,VALID,93.5527,VALID,0,VALID,24.8049,VALID,34,VALID,0.280469,
2008-11-29, 01:17:04,VALID,1009.93,VALID,0,VALID,93.5527,VALID,0,VALID,24.8049,VALID,34,VALID,0.3125,
2008-11-29, 01:18:04,VALID,1009.94,VALID,0,VALID,93.5832,VALID,0,VALID,24.7854,VALID,53,VALID,0.529688,
2008-11-29, 01:19:04,VALID,1009.91,VALID,0,VALID,93.5985,VALID,0,VALID,24.7854,VALID,52,VALID,0.341016,
2008-11-29, 01:20:04,VALID,1009.92,VALID,0,VALID,93.6137,VALID,0,VALID,24.7464,VALID,52,VALID,0.291016,
2008-11-29, 01:21:04,VALID,1009.87,VALID,0,VALID,93.629,VALID,0,VALID,24.7055,VALID,52,VALID,0.380859,
2008-11-29, 01:22:04,VALID,1009.92,VALID,0,VALID,93.6748,VALID,0,VALID,24.686,VALID,52,VALID,0.337891,
2008-11-29, 01:23:04,VALID,1009.87,VALID,0,VALID,93.6976,VALID,0,VALID,24.686,VALID,52,VALID,0.336328,
2008-11-29, 01:24:04,VALID,1009.88,VALID,0,VALID,93.7434,VALID,0,VALID,24.6879,VALID,52,VALID,0.101953,
2008-11-29, 01:25:04,VALID,1009.89,VALID,0,VALID,93.8044,VALID,0,VALID,24.6684,VALID,52,VALID,0.167187,
2008-11-29, 01:26:04,VALID,1009.87,VALID,0,VALID,93.8654,VALID,0,VALID,24.6684,VALID,52,VALID,0.273828,
2008-11-29, 01:27:04,VALID,1009.87,VALID,0,VALID,93.9112,VALID,0,VALID,24.6684,VALID,35,VALID,0.282422,
2008-11-29, 01:28:04,VALID,1009.87,VALID,0,VALID,93.934,VALID,0,VALID,24.6684,VALID,35,VALID,0.322656,
2008-11-29, 01:29:04,VALID,1009.81,VALID,0,VALID,93.9645,VALID,0,VALID,24.6684,VALID,35,VALID,0.361719,
2008-11-29, 01:30:04,VALID,1009.81,VALID,0,VALID,93.9874,VALID,0,VALID,24.6684,VALID,31,VALID,0.308984,
2008-11-29, 01:31:04,VALID,1009.79,VALID,0,VALID,93.995,VALID,0,VALID,24.6489,VALID,31,VALID,0.177344,
2008-11-29, 01:32:04,VALID,1009.81,VALID,0,VALID,93.9874,VALID,0,VALID,24.6294,VALID,31,VALID,0.0703125,
2008-11-29, 01:33:04,VALID,1009.82,VALID,0,VALID,93.995,VALID,0,VALID,24.6489,VALID,31,VALID,0,
2008-11-29, 01:34:04,VALID,1009.84,VALID,0,VALID,94.0103,VALID,0,VALID,24.6294,VALID,31,VALID,0.135156,
2008-11-29, 01:35:04,VALID,1009.82,VALID,0,VALID,94.0255,VALID,0,VALID,24.5886,VALID,31,VALID,0,
2008-11-29, 01:36:04,VALID,1009.81,VALID,0,VALID,94.056,VALID,0,VALID,24.6099,VALID,31,VALID,0,
2008-11-29, 01:37:04,VALID,1009.78,VALID,0,VALID,94.0865,VALID,0,VALID,24.6099,VALID,31,VALID,0,
2008-11-29, 01:38:04,VALID,1009.8,VALID,0,VALID,94.1094,VALID,0,VALID,24.5905,VALID,31,VALID,0,
2008-11-29, 01:39:04,VALID,1009.77,VALID,0,VALID,94.1247,VALID,0,VALID,24.5905,VALID,31,VALID,0,
2008-11-29, 01:40:04,VALID,1009.74,VALID,0,VALID,94.1476,VALID,0,VALID,24.5496,VALID,31,VALID,0,
2008-11-29, 01:41:04,VALID,1009.79,VALID,0,VALID,94.1704,VALID,0,VALID,24.571,VALID,31,VALID,0,
2008-11-29, 01:42:04,VALID,1009.78,VALID,0,VALID,94.2086,VALID,0,VALID,24.5515,VALID,31,VALID,0.0148437,
2008-11-29, 01:43:04,VALID,1009.77,VALID,0,VALID,94.2391,VALID,0,VALID,24.5515,VALID,31,VALID,0,
2008-11-29, 01:44:04,VALID,1009.77,VALID,0,VALID,94.2543,VALID,0,VALID,24.5728,VALID,31,VALID,0,
2008-11-29, 01:45:04,VALID,1009.78,VALID,0,VALID,94.2696,VALID,0,VALID,24.5515,VALID,31,VALID,0,
2008-11-29, 01:46:04,VALID,1009.77,VALID,0,VALID,94.3001,VALID,0,VALID,24.532,VALID,31,VALID,0,
2008-11-29, 01:47:04,VALID,1009.8,VALID,0,VALID,94.3001,VALID,0,VALID,24.5533,VALID,31,VALID,0,
2008-11-29, 01:48:04,VALID,1009.79,VALID,0,VALID,94.3153,VALID,0,VALID,24.5125,VALID,31,VALID,0,
2008-11-29, 01:49:04,VALID,1009.82,VALID,0,VALID,94.3306,VALID,0,VALID,24.5125,VALID,31,VALID,0,
2008-11-29, 01:50:04,VALID,1009.82,VALID,0,VALID,94.3534,VALID,0,VALID,24.493,VALID,31,VALID,0,
2008-11-29, 01:51:04,VALID,1009.82,VALID,0,VALID,94.3611,VALID,0,VALID,24.493,VALID,31,VALID,0,
2008-11-29, 01:52:04,VALID,1009.79,VALID,0,VALID,94.3916,VALID,0,VALID,24.493,VALID,31,VALID,0.13125,
2008-11-29, 01:53:04,VALID,1009.83,VALID,0,VALID,94.4297,VALID,0,VALID,24.493,VALID,31,VALID,0.166797,
2008-11-29, 01:54:04,VALID,1009.79,VALID,0,VALID,94.4373,VALID,0.105969,VALID,24.4911,VALID,31,VALID,0.219141,
2008-11-29, 01:55:04,VALID,1009.8,VALID,0,VALID,94.4755,VALID,0.105969,VALID,24.4911,VALID,31,VALID,0.239063,
2008-11-29, 01:56:04,VALID,1009.82,VALID,0,VALID,94.4983,VALID,0,VALID,24.5106,VALID,31,VALID,0.214844,
2008-11-29, 01:57:04,VALID,1009.83,VALID,0,VALID,94.5136,VALID,0.105969,VALID,24.5106,VALID,31,VALID,0.230469,
2008-11-29, 01:58:04,VALID,1009.82,VALID,0,VALID,94.5136,VALID,0,VALID,24.5106,VALID,23,VALID,0.35,
2008-11-29, 01:59:04,VALID,1009.84,VALID,0,VALID,94.506,VALID,0.105969,VALID,24.4911,VALID,23,VALID,0.383203,
2008-11-29, 02:00:04,VALID,1009.83,VALID,0,VALID,94.4983,VALID,0.105969,VALID,24.4911,VALID,23,VALID,0.346484,
2008-11-29, 02:01:04,VALID,1009.83,VALID,0,VALID,94.4831,VALID,0,VALID,24.4911,VALID,23,VALID,0.235156,
2008-11-29, 02:02:04,VALID,1009.83,VALID,0,VALID,94.5136,VALID,0.105969,VALID,24.4911,VALID,23,VALID,0.263281,
2008-11-29, 02:03:04,VALID,1009.83,VALID,0,VALID,94.506,VALID,0.105969,VALID,24.4717,VALID,23,VALID,0.196875,
2008-11-29, 02:04:04,VALID,1009.84,VALID,0,VALID,94.5136,VALID,0.105969,VALID,24.4717,VALID,23,VALID,0,
2008-11-29, 02:05:04,VALID,1009.86,VALID,0,VALID,94.5288,VALID,0.105969,VALID,24.493,VALID,23,VALID,0,
2008-11-29, 02:06:04,VALID,1009.84,VALID,0,VALID,94.506,VALID,0.105969,VALID,24.4717,VALID,23,VALID,0,
2008-11-29, 02:07:04,VALID,1009.88,VALID,0,VALID,94.506,VALID,0,VALID,24.4522,VALID,23,VALID,0,
2008-11-29, 02:08:04,VALID,1009.83,VALID,0,VALID,94.506,VALID,0.105969,VALID,24.4327,VALID,23,VALID,0,
2008-11-29, 02:09:04,VALID,1009.81,VALID,0,VALID,94.4983,VALID,0,VALID,24.4132,VALID,23,VALID,0,
2008-11-29, 02:10:04,VALID,1009.82,VALID,0,VALID,94.4907,VALID,0,VALID,24.3937,VALID,23,VALID,0,
2008-11-29, 02:11:04,VALID,1009.81,VALID,0,VALID,94.4983,VALID,0.105969,VALID,24.3937,VALID,23,VALID,0,
2008-11-29, 02:12:04,VALID,1009.82,VALID,0,VALID,94.5136,VALID,0.105969,VALID,24.3761,VALID,23,VALID,0,
2008-11-29, 02:13:04,VALID,1009.83,VALID,0,VALID,94.5136,VALID,0,VALID,24.3742,VALID,23,VALID,0,
2008-11-29, 02:14:04,VALID,1009.81,VALID,0,VALID,94.5441,VALID,0,VALID,24.3761,VALID,23,VALID,0,
2008-11-29, 02:15:04,VALID,1009.8,VALID,0,VALID,94.5441,VALID,0,VALID,24.3547,VALID,23,VALID,0,
2008-11-29, 02:16:04,VALID,1009.83,VALID,0,VALID,94.5746,VALID,0.105969,VALID,24.3352,VALID,23,VALID,0,
2008-11-29, 02:17:04,VALID,1009.8,VALID,0,VALID,94.5898,VALID,0,VALID,24.3547,VALID,23,VALID,0,
2008-11-29, 02:18:04,VALID,1009.82,VALID,0,VALID,94.6127,VALID,0,VALID,24.3761,VALID,23,VALID,0,
2008-11-29, 02:19:04,VALID,1009.79,VALID,0,VALID,94.6127,VALID,0.105969,VALID,24.3742,VALID,23,VALID,0,
2008-11-29, 02:20:04,VALID,1009.8,VALID,0,VALID,94.6432,VALID,0.105969,VALID,24.3547,VALID,23,VALID,0,
2008-11-29, 02:21:04,VALID,1009.79,VALID,0,VALID,94.6508,VALID,0.105969,VALID,24.3547,VALID,23,VALID,0,
2008-11-29, 02:22:04,VALID,1009.81,VALID,0,VALID,94.689,VALID,0.105969,VALID,24.3529,VALID,23,VALID,0,
2008-11-29, 02:23:04,VALID,1009.8,VALID,0,VALID,94.6966,VALID,0.105969,VALID,24.3547,VALID,23,VALID,0,
2008-11-29, 02:24:04,VALID,1009.82,VALID,0,VALID,94.7271,VALID,0,VALID,24.3761,VALID,23,VALID,0,
2008-11-29, 02:25:04,VALID,1009.83,VALID,0,VALID,94.7424,VALID,0,VALID,24.3761,VALID,23,VALID,0,
2008-11-29, 02:26:04,VALID,1009.85,VALID,0,VALID,94.7652,VALID,0,VALID,24.3956,VALID,23,VALID,0,
2008-11-29, 02:27:04,VALID,1009.85,VALID,0,VALID,94.7576,VALID,0,VALID,24.3761,VALID,23,VALID,0,
2008-11-29, 02:28:04,VALID,1009.87,VALID,0,VALID,94.7729,VALID,0,VALID,24.3956,VALID,23,VALID,0,
2008-11-29, 02:29:04,VALID,1009.88,VALID,0,VALID,94.7729,VALID,0,VALID,24.3761,VALID,23,VALID,0,
2008-11-29, 02:30:04,VALID,1009.88,VALID,0,VALID,94.8034,VALID,0,VALID,24.3974,VALID,23,VALID,0,
2008-11-29, 02:31:04,VALID,1009.86,VALID,0,VALID,94.7957,VALID,0,VALID,24.3761,VALID,23,VALID,0,
2008-11-29, 02:32:04,VALID,1009.87,VALID,0,VALID,94.8034,VALID,0,VALID,24.3547,VALID,23,VALID,0,
2008-11-29, 02:33:04,VALID,1009.9,VALID,0,VALID,94.8034,VALID,0,VALID,24.3956,VALID,23,VALID,0,
2008-11-29, 02:34:04,VALID,1009.9,VALID,0,VALID,94.811,VALID,0,VALID,24.3761,VALID,23,VALID,0,
2008-11-29, 02:35:04,VALID,1009.9,VALID,0,VALID,94.7957,VALID,0,VALID,24.3566,VALID,23,VALID,0,
2008-11-29, 02:36:04,VALID,1009.9,VALID,0,VALID,94.8186,VALID,0.105969,VALID,24.3566,VALID,23,VALID,0,
2008-11-29, 02:37:04,VALID,1009.9,VALID,0,VALID,94.811,VALID,0,VALID,24.3566,VALID,23,VALID,0,
2008-11-29, 02:38:04,VALID,1009.9,VALID,0,VALID,94.811,VALID,0,VALID,24.3566,VALID,23,VALID,0,
2008-11-29, 02:39:04,VALID,1009.9,VALID,0,VALID,94.8262,VALID,0,VALID,24.3566,VALID,23,VALID,0,
2008-11-29, 02:40:04,VALID,1009.93,VALID,0,VALID,94.8339,VALID,0,VALID,24.3566,VALID,23,VALID,0,
2008-11-29, 02:41:04,VALID,1009.92,VALID,0,VALID,94.8339,VALID,0,VALID,24.3352,VALID,23,VALID,0,
2008-11-29, 02:42:04,VALID,1009.95,VALID,0,VALID,94.8491,VALID,0,VALID,24.3566,VALID,23,VALID,0,
2008-11-29, 02:43:04,VALID,1009.91,VALID,0,VALID,94.8415,VALID,0,VALID,24.3566,VALID,23,VALID,0,
2008-11-29, 02:44:04,VALID,1009.92,VALID,0,VALID,94.8339,VALID,0,VALID,24.3566,VALID,23,VALID,0,
2008-11-29, 02:45:04,VALID,1009.89,VALID,0,VALID,94.8415,VALID,0,VALID,24.3371,VALID,23,VALID,0,
2008-11-29, 02:46:04,VALID,1009.9,VALID,0,VALID,94.8491,VALID,0,VALID,24.3176,VALID,23,VALID,0,
2008-11-29, 02:47:04,VALID,1009.88,VALID,0,VALID,94.8262,VALID,0,VALID,24.2981,VALID,23,VALID,0,
2008-11-29, 02:48:04,VALID,1009.87,VALID,0,VALID,94.8186,VALID,0,VALID,24.2981,VALID,23,VALID,0,
2008-11-29, 02:49:04,VALID,1009.89,VALID,0,VALID,94.8186,VALID,0,VALID,24.2981,VALID,23,VALID,0,
2008-11-29, 02:50:04,VALID,1009.87,VALID,0,VALID,94.8262,VALID,0,VALID,24.2573,VALID,23,VALID,0,
2008-11-29, 02:51:04,VALID,1009.9,VALID,0,VALID,94.8262,VALID,0,VALID,24.2591,VALID,23,VALID,0,
2008-11-29, 02:52:04,VALID,1009.93,VALID,0,VALID,94.8339,VALID,0,VALID,24.2396,VALID,23,VALID,0,
2008-11-29, 02:53:04,VALID,1009.93,VALID,0,VALID,94.8491,VALID,0,VALID,24.2202,VALID,23,VALID,0,
2008-11-29, 02:54:04,VALID,1009.95,VALID,0,VALID,94.8339,VALID,0,VALID,24.2396,VALID,23,VALID,0,
2008-11-29, 02:55:04,VALID,1009.94,VALID,0,VALID,94.8644,VALID,0,VALID,24.2202,VALID,23,VALID,0,
2008-11-29, 02:56:04,VALID,1009.91,VALID,0,VALID,94.8339,VALID,0,VALID,24.2007,VALID,23,VALID,0,
2008-11-29, 02:57:04,VALID,1009.93,VALID,0,VALID,94.8796,VALID,0.105969,VALID,24.2007,VALID,23,VALID,0,
2008-11-29, 02:58:04,VALID,1009.9,VALID,0,VALID,94.872,VALID,0,VALID,24.1812,VALID,23,VALID,0,
2008-11-29, 02:59:04,VALID,1009.89,VALID,0,VALID,94.8873,VALID,0,VALID,24.1812,VALID,24,VALID,0,
2008-11-29, 03:00:04,VALID,1009.9,VALID,0,VALID,94.8873,VALID,0,VALID,24.2007,VALID,24,VALID,0,
2008-11-29, 03:01:04,VALID,1009.89,VALID,0,VALID,94.9101,VALID,0,VALID,24.1812,VALID,24,VALID,0,
2008-11-29, 03:02:04,VALID,1009.89,VALID,0,VALID,94.9254,VALID,0,VALID,24.1812,VALID,24,VALID,0,
2008-11-29, 03:03:04,VALID,1009.89,VALID,0,VALID,94.9254,VALID,0,VALID,24.2007,VALID,58,VALID,0.324219,
2008-11-29, 03:04:04,VALID,1009.87,VALID,0,VALID,94.9559,VALID,0,VALID,24.2007,VALID,58,VALID,0.394141,
2008-11-29, 03:05:04,VALID,1009.87,VALID,0,VALID,94.9559,VALID,0,VALID,24.1812,VALID,58,VALID,0.255859,
2008-11-29, 03:06:04,VALID,1009.85,VALID,0,VALID,94.9864,VALID,0,VALID,24.2007,VALID,58,VALID,0.160547,
2008-11-29, 03:07:04,VALID,1009.86,VALID,0,VALID,94.9559,VALID,0,VALID,24.2007,VALID,58,VALID,0.235938,
2008-11-29, 03:08:04,VALID,1009.87,VALID,0,VALID,94.994,VALID,0,VALID,24.2202,VALID,98,VALID,0.307813,
2008-11-29, 03:09:04,VALID,1009.87,VALID,0,VALID,94.9864,VALID,0,VALID,24.2202,VALID,98,VALID,0.182422,
2008-11-29, 03:10:04,VALID,1009.85,VALID,0,VALID,94.994,VALID,0,VALID,24.2007,VALID,98,VALID,0.0527344,
2008-11-29, 03:11:04,VALID,1009.83,VALID,0,VALID,94.9788,VALID,0,VALID,24.2007,VALID,98,VALID,0.194141,
2008-11-29, 03:12:04,VALID,1009.84,VALID,0,VALID,94.9635,VALID,0,VALID,24.2007,VALID,89,VALID,0.263281,
2008-11-29, 03:13:04,VALID,1009.84,VALID,0,VALID,94.9635,VALID,0,VALID,24.1812,VALID,89,VALID,0.0683594,
2008-11-29, 03:14:04,VALID,1009.84,VALID,0,VALID,94.9788,VALID,0,VALID,24.2202,VALID,89,VALID,0.210938,
2008-11-29, 03:15:04,VALID,1009.85,VALID,0,VALID,94.9635,VALID,0,VALID,24.2007,VALID,89,VALID,0,
2008-11-29, 03:16:04,VALID,1009.86,VALID,0,VALID,94.9711,VALID,0,VALID,24.2007,VALID,89,VALID,0,
2008-11-29, 03:17:04,VALID,1009.87,VALID,0,VALID,94.9635,VALID,0,VALID,24.1404,VALID,89,VALID,0,
2008-11-29, 03:18:04,VALID,1009.86,VALID,0,VALID,94.9635,VALID,0,VALID,24.1812,VALID,89,VALID,0.0746094,
2008-11-29, 03:19:04,VALID,1009.89,VALID,0,VALID,94.9635,VALID,0,VALID,24.1812,VALID,89,VALID,0,
2008-11-29, 03:20:04,VALID,1009.88,VALID,0,VALID,94.9483,VALID,0,VALID,24.2007,VALID,89,VALID,0.184375,
2008-11-29, 03:21:04,VALID,1009.88,VALID,0,VALID,94.9711,VALID,0,VALID,24.1812,VALID,89,VALID,0,
2008-11-29, 03:22:04,VALID,1009.89,VALID,0,VALID,94.9559,VALID,0,VALID,24.1617,VALID,89,VALID,0,
2008-11-29, 03:23:04,VALID,1009.89,VALID,0,VALID,94.9559,VALID,0,VALID,24.1422,VALID,89,VALID,0,
2008-11-29, 03:24:04,VALID,1009.91,VALID,0,VALID,94.9406,VALID,0,VALID,24.1422,VALID,89,VALID,0,
2008-11-29, 03:25:04,VALID,1009.92,VALID,0,VALID,94.9483,VALID,0,VALID,24.1227,VALID,89,VALID,0,
2008-11-29, 03:26:04,VALID,1009.94,VALID,0,VALID,94.9406,VALID,0,VALID,24.0819,VALID,89,VALID,0,
2008-11-29, 03:27:04,VALID,1009.94,VALID,0,VALID,94.933,VALID,0,VALID,24.0819,VALID,89,VALID,0,
2008-11-29, 03:28:04,VALID,1009.97,VALID,0,VALID,94.9101,VALID,0,VALID,24.0624,VALID,89,VALID,0,
2008-11-29, 03:29:04,VALID,1009.96,VALID,0,VALID,94.9178,VALID,0,VALID,24.0643,VALID,89,VALID,0,
2008-11-29, 03:30:04,VALID,1009.97,VALID,0,VALID,94.9101,VALID,0,VALID,24.0837,VALID,89,VALID,0,
2008-11-29, 03:31:04,VALID,1009.95,VALID,0,VALID,94.8949,VALID,0,VALID,24.0643,VALID,89,VALID,0,
2008-11-29, 03:32:04,VALID,1009.94,VALID,0,VALID,94.8949,VALID,0,VALID,24.0643,VALID,89,VALID,0,
2008-11-29, 03:33:04,VALID,1009.93,VALID,0,VALID,94.8873,VALID,0,VALID,24.0429,VALID,89,VALID,0,
2008-11-29, 03:34:04,VALID,1009.94,VALID,0,VALID,94.9101,VALID,0,VALID,24.004,VALID,89,VALID,0,
2008-11-29, 03:35:04,VALID,1009.93,VALID,0,VALID,94.9254,VALID,0,VALID,24.0448,VALID,89,VALID,0,
2008-11-29, 03:36:04,VALID,1009.96,VALID,0,VALID,94.9254,VALID,0,VALID,24.0253,VALID,89,VALID,0,
2008-11-29, 03:37:04,VALID,1009.97,VALID,0,VALID,94.9559,VALID,0,VALID,24.0448,VALID,89,VALID,0.14375,
2008-11-29, 03:38:04,VALID,1009.95,VALID,0,VALID,94.9483,VALID,0,VALID,24.0235,VALID,89,VALID,0.217578,
2008-11-29, 03:39:04,VALID,1009.91,VALID,0,VALID,94.9635,VALID,0,VALID,24.0253,VALID,89,VALID,0.248047,
2008-11-29, 03:40:04,VALID,1009.91,VALID,0,VALID,94.9711,VALID,0,VALID,24.0058,VALID,89,VALID,0.395312,
2008-11-29, 03:41:04,VALID,1009.87,VALID,0,VALID,94.9788,VALID,0,VALID,24.0253,VALID,89,VALID,0.25625,
2008-11-29, 03:42:04,VALID,1009.88,VALID,0,VALID,94.994,VALID,0,VALID,24.0253,VALID,89,VALID,0.276172,
2008-11-29, 03:43:04,VALID,1009.87,VALID,0,VALID,95.0016,VALID,0,VALID,24.0448,VALID,89,VALID,0.507031,
2008-11-29, 03:44:04,VALID,1009.88,VALID,0,VALID,95.0398,VALID,0,VALID,24.0837,VALID,109,VALID,0.282031,
2008-11-29, 03:45:04,VALID,1009.87,VALID,0,VALID,95.0321,VALID,0,VALID,24.0643,VALID,109,VALID,0.240234,
2008-11-29, 03:46:04,VALID,1009.9,VALID,0,VALID,95.0321,VALID,0,VALID,24.0643,VALID,109,VALID,0,
2008-11-29, 03:47:04,VALID,1009.91,VALID,0,VALID,95.0474,VALID,0,VALID,24.0448,VALID,109,VALID,0,
2008-11-29, 03:48:04,VALID,1009.89,VALID,0,VALID,95.0398,VALID,0,VALID,24.0448,VALID,109,VALID,0,
2008-11-29, 03:49:04,VALID,1009.89,VALID,0,VALID,95.0398,VALID,0,VALID,24.0429,VALID,109,VALID,0.0878906,